User: anonymous   Login
Location: Norwich
(52.6280°N, 1.3030°E)
Time: 00:31:51
(UTC+00:00)
Language:

APEX - Orbit

View from above orbital plane
View from above orbital plane
View from above satellite
View from above satellite

Ground track
Ground track

The orbit data is extracted from the following two-line orbital elements,

1 23191U 94046A   15057.34483000  .00025118  00000-0  93587-3 0  9991
2 23191 069.9352 342.1818 0699567 320.4459 176.1114 14.15224334996316
Epoch (UTC): 26 February 2015 08:16:33
Eccentricity: 0.0699567
inclination: 69.9352°
perigee height: 336 km
apogee height: 1346 km
right ascension of ascending node: 342.1818°
argument of perigee: 320.4459°
revolutions per day: 14.15224334
mean anomaly at epoch: 176.1114°
orbit number at epoch: 99631

The dashed part of the orbit path shows where the satellite is in the earth's shadow,  

DLR